GFSCGP_2pvu_pres_057.txt.gz
Presure
213 204 195 195 195 191 183 179 184 192 186 198 178 177 192 194 187 187 197 199 195 242 267 254 250 241 252 204 185 220 204 211 177 202 191 178 175 170 190 185 170 200 172 173
206 202 194 193 186 191 180 177 179 179 186 194 186 182 188 191 195 184 180 189 205 209 253 242 248 244 245 249 220 189 204 198 204 173 196 192 184 171 178 177 194 172 194 178
198 206 198 184 187 187 185 180 195 168 174 182 182 187 186 189 201 191 184 177 198 197 210 253 266 247 238 234 247 201 190 203 211 199 188 191 181 174 181 174 187 172 174 182
212 199 196 187 186 189 184 182 189 177 174 176 167 175 177 190 192 181 167 189 190 198 199 228 245 268 243 226 237 241 245 221 196 203 194 197 175 174 177 174 179 167 176 174
193 187 194 187 194 187 182 183 178 186 174 173 164 183 180 193 186 193 175 180 183 191 190 200 215 244 215 248 233 227 226 240 259 189 185 192 184 181 183 170 188 174 183 177
206 194 191 187 188 187 178 186 179 182 184 185 180 175 172 182 185 186 217 166 185 187 190 192 202 212 233 216 257 230 226 220 232 242 237 200 191 182 189 187 182 177 176 172
206 195 190 186 187 193 182 190 182 168 185 176 175 155 183 173 181 181 204 211 175 178 183 190 182 210 220 226 237 256 225 222 222 225 227 231 239 241 194 186 182 184 192 191
209 198 189 189 185 190 188 188 184 190 188 177 177 170 176 184 179 177 185 210 180 184 184 183 192 186 206 228 216 221 285 232 223 207 220 227 227 235 227 196 185 195 193 179
204 199 196 187 200 194 188 185 194 146 184 180 176 174 182 173 183 189 188 210 204 174 176 190 185 195 180 204 224 213 229 281 283 228 226 215 222 222 222 221 218 229 227 194
207 201 199 198 198 193 196 189 193 193 173 176 177 176 184 181 191 167 187 210 200 189 177 177 188 183 190 177 201 200 205 228 262 238 250 225 220 215 216 221 219 215 217 219
203 193 192 198 193 194 193 193 193 190 192 181 179 174 184 175 175 175 196 209 205 201 173 185 172 183 191 190 194 197 214 207 233 218 285 259 256 232 221 215 218 222 213 204
204 192 210 206 201 202 205 200 193 199 195 185 175 177 187 182 178 190 181 200 207 201 184 166 186 174 195 191 164 184 167 201 193 199 224 205 275 253 256 273 234 216 212 218
201 189 194 196 199 197 197 193 196 189 186 189 182 184 183 188 188 193 177 197 194 199 217 208 172 198 182 187 192 194 188 207 191 212 201 233 204 206 251 256 231 223 257 254
197 195 196 194 198 194 195 203 209 197 204 200 194 187 185 188 189 192 171 190 185 175 218 197 200 205 189 189 196 185 192 172 186 168 176 216 226 212 206 217 219 263 216 183
206 199 199 193 194 197 202 200 202 194 213 199 193 188 174 187 191 192 195 191 187 179 219 191 194 202 182 182 198 190 182 191 127 178 166 192 188 224 192 194 131 222 241 207
207 206 207 212 210 191 193 203 204 198 196 196 194 193 197 195 188 189 146 189 200 192 211 211 199 201 198 208 182 192 188 193 193 198 123 206 170 178 186 213 225 185 193 183
217 212 208 209 202 196 203 200 212 214 205 205 206 199 203 187 189 184 192 192 200 209 189 211 216 202 199 196 187 178 193 185 185 191 202 191 194 201 193 179 200 213 219 201
230 222 228 213 205 201 195 198 212 215 208 205 202 205 200 185 194 201 201 196 201 204 193 213 191 211 198 198 195 188 181 194 182 180 185 199 191 195 201 201 199 202 205 207
231 227 221 219 224 228 218 197 210 101 214 218 219 215 210 213 210 207 198 196 205 197 204 212 201 208 213 210 206 202 194 174 195 186 193 188 171 185 190 192 195 193 193 194
229 228 221 221 221 207 204 202 218 223 206 217 213 213 211 210 208 149 202 213 207 208 206 211 200 207 203 208 212 211 176 186 184 184 196 193 177 180 178 185 191 190 190 193
232 227 236 227 126 223 224 230 226 200 221 208 227 230 222 236 165 217 219 219 179 205 217 205 214 211 206 209 210 209 219 196 198 186 180 192 178 180 183 180 189 192 189 188
241 232 231 175 226 222 216 184 232 231 230 162 228 227 227 223 216 212 213 212 211 214 208 208 211 210 212 202 204 204 213 217 211 187 209 201 197 193 194 193 197 188 186 192
265 255 248 231 234 153 229 231 232 232 231 140 158 230 223 122 219 216 216 212 209 206 201 166 209 208 207 214 193 207 203 206 204 212 210 200 190 193 194 188 197 194 186 189
185 259 265 260 260 258 99 256 256 254 244 241 238 237 239 234 233 234 232 229 119 132 197 199 202 214 216 212 213 204 202 216 211 202 194 200 197 196 207 198 189 193 192 197
263 262 261 262 267 272 275 278 280 280 277 280 278 279 286 276 268 262 252 253 135 148 234 224 206 224 222 220 223 225 218 222 187 198 204 192 210 192 189 185 202 199 195 203
301 304 303 304 308 310 312 315 309 282 306 315 314 317 315 323 347 325 272 271 275 271 265 260 254 166 236 237 233 225 212 216 215 212 209 206 217 195 191 191 195 214 201 206

GFSCGP_2pvu_pres_060.txt.gz
Presure
202 189 191 189 187 199 200 189 186 193 189 185 198 195 198 183 181 200 195 192 190 200 206 254 231 242 235 250 244 205 201 206 212 217 202 206 180 195 168 196 175 198 180 168
222 195 190 210 203 207 197 189 190 189 188 185 181 186 189 201 187 202 199 189 194 193 200 207 274 257 238 239 225 261 203 210 206 186 220 173 212 187 191 173 187 170 179 184
213 204 210 213 193 212 194 183 190 186 186 184 181 182 191 184 181 188 201 188 185 192 199 202 212 270 258 240 229 228 233 196 198 195 194 213 190 190 185 183 192 175 169 170
223 210 206 197 195 199 191 185 187 184 178 175 182 184 177 179 189 174 188 187 208 184 199 195 204 222 244 280 245 247 232 222 204 197 187 190 203 205 182 174 178 192 183 181
204 213 206 197 209 209 191 189 188 189 184 174 179 175 178 191 168 182 195 193 178 179 187 197 194 197 219 234 212 241 237 237 241 249 193 200 201 180 196 175 180 187 184 186
198 205 209 196 204 204 193 190 184 179 185 177 179 173 174 191 178 186 186 186 183 219 169 191 194 192 185 231 228 254 247 231 228 235 231 194 193 192 190 194 189 183 183 175
206 205 196 212 201 203 195 187 183 185 173 184 175 187 170 181 182 177 169 196 192 203 212 177 189 193 199 186 220 224 246 239 217 229 239 239 243 247 181 181 183 195 181 186
211 195 199 202 205 193 194 186 189 181 179 183 182 186 185 179 179 185 162 166 182 178 221 190 182 192 190 199 190 223 214 214 243 229 231 234 231 226 222 195 191 185 189 182
206 202 194 191 197 191 199 187 188 186 175 180 184 171 173 167 180 183 179 186 190 183 213 218 183 186 194 191 187 187 208 214 272 229 237 226 223 226 235 240 226 197 193 193
210 201 197 195 213 197 188 195 187 189 188 185 180 164 177 185 176 180 190 188 191 184 190 220 203 179 185 189 190 180 195 190 183 225 263 242 240 223 219 229 224 226 225 226
213 202 196 206 197 201 195 190 188 191 185 188 181 175 188 185 184 179 189 189 181 187 174 202 217 213 177 186 186 183 163 194 191 220 227 219 233 253 243 229 219 216 212 210
206 199 208 219 198 203 199 194 195 185 200 192 184 179 175 183 180 180 187 177 188 189 187 195 206 195 171 171 189 196 190 176 190 180 202 229 238 223 202 265 251 232 211 213
200 199 202 201 205 199 204 200 194 192 195 191 192 178 171 167 170 184 189 186 189 185 178 182 200 170 227 213 177 184 189 183 191 187 192 197 195 222 225 223 197 245 253 259
208 218 205 222 222 210 201 199 198 197 196 193 188 193 179 192 181 182 179 179 183 187 190 193 185 202 201 223 212 190 192 190 193 196 202 192 167 187 160 221 213 216 212 185
215 210 217 208 208 211 211 187 191 204 204 202 201 195 192 195 194 180 184 187 190 194 196 197 193 198 182 213 200 206 189 182 197 197 194 177 131 190 128 189 189 137 194 225
222 222 217 206 202 200 201 193 191 196 199 195 197 189 188 190 188 180 194 197 191 189 181 195 194 188 201 190 217 225 209 190 190 181 198 192 193 198 140 162 199 203 184 204
221 214 216 210 209 206 204 198 199 199 198 199 200 194 195 201 192 192 200 197 195 190 189 191 192 201 193 201 199 227 223 221 160 186 190 195 190 192 192 194 192 199 195 203
222 221 217 214 213 209 200 202 199 199 199 197 201 205 201 214 193 203 204 197 184 192 193 197 190 196 203 192 202 203 224 190 209 194 185 185 190 176 186 199 192 191 193 193
221 222 222 220 217 211 204 207 206 204 206 207 203 197 194 204 203 201 189 191 191 199 199 190 185 195 203 195 203 200 201 202 212 214 220 210 177 190 196 183 183 196 200 196
229 220 225 225 216 213 212 213 211 211 207 198 216 200 199 201 209 220 218 199 192 193 199 194 194 203 206 201 201 196 203 214 194 210 207 210 204 193 187 199 185 182 183 195
241 226 221 228 226 217 219 213 211 211 211 212 211 209 200 200 202 212 220 213 206 205 211 208 207 208 198 206 207 200 212 202 210 210 200 204 203 213 215 204 197 196 189 198
233 230 238 236 222 223 219 153 231 227 218 222 231 230 231 231 224 217 216 211 211 210 208 204 206 203 210 218 220 211 207 211 202 210 208 203 202 201 199 211 217 207 194 188
234 238 238 236 235 222 233 230 221 224 228 226 225 110 222 221 220 221 217 215 218 221 227 223 221 224 217 210 209 212 211 209 214 208 211 211 202 204 201 198 194 205 205 207
249 238 230 231 235 232 233 157 223 95 227 231 231 230 233 232 233 230 232 233 234 233 230 212 226 219 213 209 207 210 200 210 206 209 203 208 162 208 212 210 205 211 204 205
263 252 245 235 238 238 236 234 117 233 233 231 232 234 234 233 232 231 232 232 232 231 227 223 216 211 188 144 173 174 206 205 206 210 210 208 207 206 208 207 210 213 208 215
252 150 266 261 254 250 251 250 249 248 249 249 250 249 251 254 254 251 250 251 218 238 247 242 236 147 155 230 230 228 223 223 222 217 213 211 209 210 212 210 214 202 223 217

GFSCGP_2pvu_pres_063.txt.gz
Presure
219 275 193 204 205 194 185 202 170 191 192 193 198 190 195 188 201 182 189 188 210 198 189 200 199 281 249 245 267 252 207 201 203 212 221 208 190 210 181 198 165 176 174 182
256 239 230 205 199 187 197 200 176 186 187 189 192 187 191 187 187 200 191 194 203 201 191 195 202 198 224 248 226 248 220 212 204 208 204 204 218 212 192 177 198 192 185 188
236 235 214 205 195 192 192 186 183 185 188 191 185 196 183 190 185 185 195 186 189 196 189 185 199 205 211 237 251 236 225 242 213 205 211 197 208 197 201 172 187 199 183 171
240 205 196 198 192 195 172 190 186 196 185 189 187 190 185 188 190 189 182 190 193 190 193 199 186 195 199 232 238 250 243 218 224 205 209 202 184 185 200 205 177 192 184 187
252 213 238 195 191 205 193 197 192 196 186 187 183 189 186 190 181 184 177 184 172 193 196 219 206 190 201 201 218 230 257 237 230 265 241 196 190 210 195 193 193 215 177 193
234 222 219 197 194 210 182 207 194 200 188 184 185 184 183 187 178 173 175 189 174 180 195 181 218 182 188 199 198 219 232 276 238 235 250 256 195 183 181 191 197 192 198 207
229 228 228 202 191 201 216 194 212 189 188 181 185 184 186 182 185 184 174 185 183 195 171 197 176 219 183 189 205 199 222 263 255 228 235 255 285 244 188 178 180 187 184 184
235 236 221 219 205 206 213 195 203 186 186 181 183 176 184 185 185 177 173 181 183 183 157 185 175 219 206 181 190 206 192 214 218 263 231 216 247 264 251 203 185 182 183 190
215 233 219 209 206 203 205 200 199 200 184 179 180 184 185 179 183 181 179 188 187 184 190 188 188 186 221 206 182 190 201 192 198 208 299 242 226 234 255 254 241 200 200 195
209 219 214 205 200 198 208 201 202 204 188 180 183 180 190 185 182 185 186 188 181 177 193 188 191 193 212 215 192 177 189 194 193 200 191 236 262 229 226 234 236 239 254 240
216 221 213 208 196 197 207 210 194 203 196 182 185 182 185 184 181 181 182 184 189 186 147 177 186 187 172 208 214 193 179 186 197 193 194 198 207 259 228 227 226 226 227 227
209 224 211 204 203 199 200 196 209 201 192 181 184 187 188 186 183 184 190 187 189 186 172 189 191 190 192 184 209 219 175 176 174 187 193 198 185 199 231 232 300 266 225 217
212 228 211 205 206 199 202 202 211 191 190 188 183 180 188 175 191 189 191 185 179 181 186 187 187 192 198 190 191 195 226 173 183 171 187 190 195 193 195 203 222 223 240 250
216 212 204 211 210 205 204 199 194 204 195 187 193 186 185 189 186 181 184 186 190 186 186 188 183 177 177 197 194 188 199 229 207 188 187 190 190 197 200 195 189 193 196 216
212 218 208 206 203 207 204 200 199 195 211 197 190 195 188 185 194 185 187 190 187 185 186 193 191 186 184 190 202 205 159 205 225 206 198 192 181 191 191 188 196 195 202 195
214 217 217 215 207 210 211 196 203 208 203 188 201 196 197 196 190 193 190 199 189 191 180 189 193 190 181 193 200 189 207 183 201 222 209 200 195 190 187 190 190 187 187 192
226 215 214 213 213 208 205 200 195 210 202 197 206 205 200 196 197 197 190 189 189 193 192 196 191 184 186 197 208 198 200 201 214 205 209 218 203 200 200 185 192 191 189 190
245 220 215 217 230 225 219 213 198 205 218 225 214 211 206 193 198 200 197 194 196 190 182 188 180 187 194 200 180 188 195 205 199 214 210 218 222 206 198 196 201 189 199 183
230 231 246 225 212 210 213 208 217 212 216 216 217 213 189 188 194 207 196 193 197 189 186 192 193 197 199 206 205 187 192 207 201 200 211 204 211 214 212 203 192 191 193 192
234 228 229 242 225 226 216 211 208 215 201 100 206 206 198 192 192 198 197 197 195 196 191 191 192 197 193 190 193 201 204 203 199 199 203 208 205 201 215 207 219 222 202 197
236 233 215 232 233 221 223 217 219 221 218 210 208 207 204 202 201 197 197 194 195 198 194 198 200 203 202 209 213 207 204 203 205 207 207 213 203 217 206 208 213 211 210 213
236 238 219 213 223 232 226 215 223 220 170 210 211 211 212 204 207 206 202 201 201 199 200 205 194 199 202 203 213 209 206 209 212 211 207 208 204 220 219 208 211 205 206 213
249 238 231 233 227 209 221 224 220 217 216 216 217 215 210 210 210 208 209 213 210 211 210 210 205 201 203 205 209 212 212 209 205 205 204 204 214 220 215 215 217 213 207 211
297 246 236 232 229 225 221 193 218 150 216 227 222 183 209 211 211 212 213 220 220 220 219 222 242 233 228 226 215 209 209 214 213 213 221 219 221 218 208 207 209 208 209 203
295 262 238 236 164 205 222 222 224 230 101 213 215 227 231 158 155 224 219 226 237 238 235 232 230 228 224 175 227 120 224 219 221 222 222 177 209 213 209 208 213 206 204 204
277 285 256 243 239 239 232 230 234 109 238 244 241 240 239 235 233 236 236 237 234 233 233 233 211 235 236 238 230 229 222 219 221 225 223 155 205 204 205 211 211 209 210 207

GFSCGP_2pvu_pres_066.txt.gz
Presure
320 282 269 292 229 217 222 210 205 203 201 203 168 178 211 194 190 191 189 188 195 185 189 195 206 195 219 231 267 242 239 213 227 185 218 184 202 188 185 209 180 198 212 205
277 277 263 258 225 213 214 199 211 213 192 188 191 195 201 192 193 186 192 190 190 191 194 202 213 204 199 208 238 264 247 258 209 220 196 211 196 193 189 184 168 180 193 205
260 252 253 246 217 214 195 207 206 203 197 185 192 181 196 189 192 181 193 186 197 185 198 182 199 194 187 208 205 236 259 225 266 204 214 191 204 211 202 195 178 198 180 191
255 241 247 226 226 223 206 199 208 202 192 185 202 178 183 187 190 193 191 191 187 192 184 197 173 201 182 191 206 209 228 262 234 225 201 202 218 205 216 224 197 194 203 184
246 243 237 240 211 216 207 214 190 204 168 170 178 179 191 187 186 190 191 188 189 186 189 198 167 198 182 202 191 196 215 230 261 219 244 206 197 191 184 196 195 218 172 192
230 249 249 230 207 219 208 197 202 195 191 197 190 183 190 185 187 179 186 186 186 174 171 190 179 201 198 217 204 189 197 198 221 260 243 269 212 199 192 188 198 185 192 199
231 232 226 229 212 213 212 195 200 189 186 179 184 184 193 185 188 179 185 180 183 178 179 180 182 189 194 188 225 201 187 200 223 256 252 247 263 276 219 192 190 193 195 196
221 230 239 217 225 203 204 193 201 187 189 184 192 183 190 186 186 184 185 181 179 190 189 183 180 184 161 192 177 224 204 195 189 214 237 241 228 255 280 232 211 190 187 189
225 237 213 226 220 203 197 200 195 204 194 182 192 192 185 185 178 184 185 186 182 186 189 177 182 186 202 191 195 216 213 187 191 203 202 226 215 238 243 262 214 214 216 211
217 216 221 216 217 201 201 198 205 211 186 185 188 189 186 185 179 177 182 184 180 181 186 184 186 177 180 196 185 189 211 211 194 191 191 199 207 254 241 235 257 213 201 210
241 219 206 215 219 228 217 197 203 194 198 192 202 190 186 187 186 181 179 183 181 183 180 185 186 161 182 193 178 193 172 211 218 199 184 191 201 199 215 251 234 233 242 206
228 211 213 216 216 224 222 206 201 204 207 191 200 192 191 186 185 186 186 180 181 180 178 177 177 170 180 181 186 191 184 191 182 216 172 177 183 197 199 189 214 254 231 225
230 212 214 197 223 225 207 208 204 200 198 194 192 195 189 188 185 185 180 185 186 182 185 180 190 189 182 183 183 197 197 174 191 186 222 209 203 187 182 194 199 190 229 195
232 221 203 216 201 220 206 206 206 207 207 204 203 190 205 196 189 187 183 190 191 191 193 188 187 190 174 171 178 186 184 178 177 196 178 203 215 203 202 186 193 199 198 194
223 217 214 202 225 209 210 202 198 199 195 205 203 198 192 200 198 195 187 188 187 183 191 185 177 187 181 178 183 178 182 197 192 193 200 190 193 215 202 202 197 196 185 192
217 220 209 212 207 224 215 213 205 204 202 202 198 195 207 207 199 188 189 187 190 183 184 185 187 189 191 189 182 183 182 192 190 189 188 206 209 193 209 213 199 200 190 182
227 221 215 203 211 222 221 206 202 201 203 203 202 203 211 203 199 196 188 191 194 194 191 190 188 188 190 192 191 186 195 193 178 196 188 202 210 201 207 194 223 196 194 203
231 230 217 221 212 207 219 222 211 205 207 208 204 206 197 208 202 196 192 191 190 189 193 191 192 193 195 192 187 198 185 179 190 192 194 202 192 192 200 210 197 206 218 198
249 236 226 221 219 216 211 214 206 207 207 208 212 215 199 191 190 201 209 191 181 190 192 186 185 199 197 193 170 199 192 188 190 192 193 195 193 197 200 200 204 195 203 209
237 248 234 231 222 215 219 213 211 219 200 202 208 209 210 200 197 215 215 204 204 201 199 198 201 197 196 199 200 199 194 195 196 187 195 201 198 205 216 208 201 200 205 206
248 236 243 237 230 221 218 217 211 212 214 213 208 215 198 200 202 201 199 214 223 214 202 202 200 196 202 209 201 202 198 199 195 195 203 202 200 202 209 212 209 204 210 211
250 250 234 236 243 231 226 214 216 215 210 206 215 228 175 222 215 219 216 216 212 214 218 216 211 197 204 199 196 199 199 199 194 197 199 205 196 203 200 204 212 213 218 212
295 250 244 234 227 233 233 235 229 216 224 213 210 210 204 212 218 212 210 212 210 208 205 204 203 202 201 201 205 207 202 201 201 204 207 204 204 205 214 214 212 214 212 211
297 297 247 241 236 230 225 216 231 232 219 227 224 211 213 211 208 208 207 212 212 211 210 212 210 206 205 205 205 203 204 204 203 204 215 213 215 224 220 223 216 212 212 221
288 296 293 238 235 230 228 226 222 223 211 215 227 219 221 225 192 219 215 227 198 223 220 216 215 218 218 217 217 211 211 219 216 231 231 228 217 213 213 213 213 219 224 223
305 300 278 286 268 229 232 240 235 227 223 127 231 232 220 221 218 218 220 222 223 224 222 221 223 223 225 221 218 229 228 228 197 223 194 223 199 218 221 170 226 227 222 217

GFSCGP_2pvu_pres_072.txt.gz
Presure
234 232 220 227 214 277 250 134 187 305 288 318 263 248 238 229 220 197 209 202 200 205 196 207 194 199 195 204 200 197 196 247 280 249 237 209 194 193 182 177 174 192 173 193
229 227 244 245 156 167 277 253 176 266 286 307 259 230 230 217 214 200 199 199 195 186 200 199 196 197 196 192 205 194 188 206 242 239 275 204 204 189 192 192 174 197 176 172
230 241 233 233 223 283 272 250 331 241 288 250 245 224 231 212 207 202 207 204 180 178 200 201 195 193 193 192 194 193 215 194 214 222 287 230 196 192 186 185 181 182 183 194
232 223 207 270 195 274 243 341 295 276 303 228 235 222 226 207 217 191 196 189 182 196 198 199 193 196 186 191 177 188 204 223 200 213 227 266 239 199 199 182 179 188 183 181
240 197 174 186 256 271 318 294 275 284 255 233 216 212 213 211 203 201 199 194 172 179 192 195 192 197 183 173 187 183 203 205 201 203 212 220 252 220 218 205 180 188 193 185
222 229 281 264 245 290 296 265 259 269 227 198 211 208 205 197 193 207 202 186 178 186 190 192 193 191 189 184 176 186 185 191 202 183 202 214 305 250 260 228 190 189 199 194
271 264 278 253 262 262 259 267 255 270 220 205 216 211 196 202 195 202 186 188 196 178 187 192 192 191 192 182 175 193 192 201 200 212 201 198 220 279 254 270 227 204 212 202
259 267 256 237 268 257 255 254 243 242 206 213 215 205 194 207 190 196 184 183 193 181 194 192 184 190 184 182 191 183 190 187 184 194 203 225 192 210 234 270 264 218 226 198
257 260 248 234 255 246 237 240 238 223 209 211 212 210 206 194 205 188 197 195 194 184 181 181 189 181 182 183 176 191 179 185 185 182 201 196 209 197 198 202 287 243 243 216
256 255 242 237 250 234 248 235 230 221 205 191 192 217 193 209 196 202 202 191 183 187 186 180 183 182 178 180 188 183 187 176 183 183 190 192 207 202 210 190 199 202 272 259
257 258 243 231 248 235 229 233 232 223 205 201 200 194 203 203 202 201 195 175 185 179 185 183 181 187 184 189 187 184 178 191 173 142 189 187 181 190 203 201 215 188 201 199
251 264 230 240 247 236 227 230 230 224 216 200 197 210 214 201 200 201 182 187 180 176 178 190 182 184 179 182 184 173 184 177 182 179 178 199 179 193 193 184 187 198 207 202
271 254 232 245 240 238 235 225 225 226 212 219 189 206 212 199 197 200 198 187 188 186 186 177 181 190 182 178 181 184 181 175 184 159 183 190 181 186 182 188 195 211 198 200
275 254 237 277 243 239 233 231 231 217 219 219 204 200 199 198 189 189 192 188 183 191 187 186 184 180 180 185 182 181 184 177 183 188 182 185 185 193 182 184 191 187 171 196
280 283 244 302 242 231 221 233 225 225 219 220 213 213 202 186 193 197 200 190 191 188 190 186 183 186 178 180 182 184 178 183 192 191 176 172 169 186 181 169 172 196 208 185
280 286 256 304 251 228 226 219 223 208 208 213 218 222 214 189 190 190 191 206 193 195 193 190 188 190 185 179 182 181 181 179 183 185 177 195 189 156 191 188 179 198 194 188
283 267 253 305 256 233 230 222 216 230 209 214 222 227 221 200 199 197 196 210 205 192 206 193 189 186 188 187 182 182 183 182 182 187 188 175 172 190 187 187 156 194 198 179
293 263 245 295 250 232 228 222 224 212 213 203 206 219 223 218 203 198 197 195 210 206 198 203 197 205 199 192 188 189 186 185 193 187 192 195 189 189 179 182 191 190 195 196
283 275 295 282 247 240 226 229 217 228 214 209 207 219 221 212 210 218 192 193 197 199 198 195 206 203 195 197 192 194 199 194 193 193 189 189 190 188 190 181 199 195 193 194
279 274 265 285 241 237 236 236 220 212 223 209 219 217 236 224 213 213 213 205 206 210 207 208 200 194 201 204 202 203 197 203 205 197 197 197 185 189 196 194 190 192 199 206
288 287 291 286 245 235 233 223 236 225 217 218 222 214 217 216 210 211 211 217 220 212 205 205 204 203 199 197 195 192 194 200 201 203 203 203 203 196 202 202 207 201 199 196
286 288 291 288 245 231 236 226 237 230 216 211 215 206 210 209 214 221 224 222 214 203 204 208 207 206 207 203 206 202 201 203 199 197 201 202 203 213 210 199 214 212 206 211
280 283 270 244 273 235 229 238 224 223 229 215 210 207 204 205 206 210 210 216 211 213 211 208 204 211 204 200 205 204 211 212 205 206 209 209 211 203 220 221 216 213 209 209
263 269 272 148 261 241 236 230 234 220 231 214 224 213 209 208 206 221 222 213 215 221 221 222 219 214 196 210 213 202 203 203 207 208 212 209 231 223 222 221 214 215 208 206
297 293 286 285 289 289 244 232 225 226 220 220 234 221 222 232 222 221 213 210 210 212 214 219 224 228 223 208 207 218 215 218 214 214 238 225 231 226 215 213 206 205 213 212
299 315 323 326 284 274 281 242 232 222 181 225 219 222 217 212 211 213 214 212 212 212 212 212 211 213 211 212 216 217 214 221 212 223 215 220 217 213 212 213 212 211 211 212

GFSCGP_2pvu_pres_075.txt.gz
Presure
210 205 192 217 218 210 248 248 240 247 191 149 152 288 306 316 325 254 241 235 225 214 191 192 190 175 210 202 202 213 206 213 195 265 287 240 218 229 193 205 186 194 175 185
209 210 218 208 215 237 227 232 226 199 142 196 144 200 282 312 244 238 223 227 220 206 193 190 183 200 207 198 198 195 204 236 194 210 222 288 232 205 196 186 182 196 187 178
204 209 220 231 227 244 241 242 248 232 279 271 146 141 320 300 235 236 228 218 219 206 206 209 173 198 204 193 201 194 196 200 200 193 218 227 278 212 210 192 182 181 194 194
211 220 221 212 230 229 221 264 270 291 276 274 313 319 285 241 226 219 219 214 203 209 193 174 177 203 198 193 195 190 191 198 206 224 192 226 234 269 202 193 194 182 179 176
208 210 215 218 227 233 188 282 285 284 264 335 324 301 227 234 209 212 207 206 201 193 184 184 195 198 194 194 193 187 185 192 192 213 192 201 233 301 249 198 190 187 184 181
211 217 222 232 240 232 245 206 184 305 342 319 308 255 239 222 205 198 206 207 205 196 182 182 171 197 192 196 192 181 188 182 195 193 223 191 202 223 277 252 196 187 184 181
229 225 230 235 228 245 272 226 265 297 299 287 241 239 207 199 209 204 218 204 195 212 198 193 184 195 194 191 187 179 174 196 187 184 192 218 187 212 222 272 249 193 192 181
238 218 227 229 237 282 251 242 261 263 272 278 229 224 212 206 212 210 196 190 193 203 198 189 187 193 198 195 190 184 177 182 191 194 198 196 214 193 202 205 232 277 249 192
233 229 230 240 276 265 255 263 256 257 267 233 225 210 217 205 212 211 207 204 205 198 185 209 182 187 190 188 196 188 185 185 192 186 194 177 195 206 215 191 203 215 232 267
233 235 244 260 263 264 247 261 253 262 260 224 209 206 201 199 212 211 190 194 196 198 187 196 180 188 189 192 184 187 182 182 189 191 198 190 184 196 203 209 191 195 203 215
238 260 258 260 258 264 230 255 247 254 249 219 210 203 205 214 212 197 196 194 189 188 180 185 186 186 187 190 188 187 184 187 183 182 197 190 192 193 207 193 208 198 211 208
267 263 263 250 267 256 226 248 237 243 244 216 206 204 205 213 213 198 199 189 191 186 179 195 191 190 190 187 190 185 185 185 183 184 189 185 150 195 182 201 193 181 190 204
257 256 249 249 265 250 226 242 234 234 247 212 207 209 197 200 207 202 181 194 195 186 184 183 184 195 191 189 182 186 180 182 186 185 183 187 170 177 187 191 185 176 200 196
259 248 256 249 246 259 226 250 232 235 239 216 203 201 201 203 191 197 184 196 185 188 188 192 184 188 182 182 191 190 186 186 183 184 189 191 175 184 185 179 182 195 186 184
275 260 254 264 263 267 224 247 235 232 236 220 208 200 197 201 207 193 179 187 191 188 193 193 185 190 207 194 191 189 183 189 191 190 190 185 185 193 174 186 180 171 190 193
296 290 292 266 293 295 233 251 236 225 233 219 209 204 199 201 202 207 198 203 179 181 194 189 184 186 186 186 192 190 190 188 181 189 184 177 172 184 185 180 188 183 186 185
266 287 286 274 285 260 234 242 246 235 222 232 212 207 199 199 205 200 198 214 202 187 183 183 180 183 189 188 188 188 192 196 194 188 187 181 183 182 183 181 185 175 188 191
286 267 269 271 293 282 239 244 241 238 220 219 227 216 208 198 197 201 215 198 220 198 183 183 183 181 183 193 193 189 186 184 188 185 186 187 188 182 190 191 194 193 196 186
289 293 280 273 284 288 262 230 248 241 221 219 216 214 213 212 209 207 205 215 222 241 192 199 203 189 199 186 191 196 192 188 187 189 190 190 198 198 195 200 188 193 191 189
288 283 292 267 284 299 297 237 266 227 232 219 211 220 211 211 207 203 207 208 217 192 215 222 192 220 210 192 190 205 201 198 195 194 195 186 183 194 195 195 200 199 197 199
271 289 278 266 297 287 299 249 264 238 224 229 215 209 212 210 210 212 206 203 205 206 206 200 206 225 215 210 210 198 188 191 194 196 196 205 204 198 192 193 198 198 195 194
275 281 282 283 285 269 298 250 261 253 231 216 226 216 210 217 205 212 220 216 214 219 214 208 208 204 212 203 204 210 211 208 208 202 202 196 199 200 200 196 198 195 196 198
264 272 284 280 284 281 245 265 261 259 233 227 216 207 219 211 211 211 209 208 206 221 225 225 219 220 220 223 226 223 214 208 209 212 209 204 202 200 200 200 202 210 205 201
270 259 264 289 298 296 255 283 253 249 242 231 222 211 214 209 212 213 209 213 222 226 229 228 220 215 216 222 226 222 207 204 203 201 199 209 205 200 198 208 209 201 202 205
284 273 270 276 281 281 299 291 246 247 237 231 220 231 224 226 231 214 221 217 216 208 211 221 221 222 218 214 218 216 216 215 218 225 222 216 215 219 215 205 204 216 204 208
288 276 260 271 271 277 292 270 271 236 244 243 227 220 231 229 223 224 225 222 214 209 209 203 204 204 211 210 219 221 216 219 220 225 223 216 205 210 217 215 216 226 227 210

GFSCGP_2pvu_pres_078.txt.gz
Presure
210 212 197 209 199 202 205 188 199 208 210 250 252 263 132 229 195 247 252 312 328 275 247 238 149 219 226 189 191 214 199 205 205 213 197 246 265 240 231 223 197 208 216 200
206 198 216 213 216 211 215 211 212 216 223 235 229 208 140 222 282 295 146 333 276 240 240 227 220 210 201 191 178 208 201 201 199 229 199 221 224 261 234 219 205 204 210 185
206 211 205 214 201 205 210 213 212 225 231 227 254 242 208 291 146 199 239 286 236 234 233 223 217 206 187 195 200 199 199 194 200 191 199 202 221 219 261 228 207 195 203 201
209 210 211 216 211 216 213 208 221 218 222 248 255 309 294 279 150 287 338 238 234 226 224 214 210 211 193 182 203 199 194 198 190 196 239 207 199 234 279 226 204 197 193 196
208 221 218 216 213 201 214 208 210 218 244 245 281 311 259 255 203 291 252 235 231 220 225 213 200 187 192 170 200 177 194 199 192 195 199 231 197 206 264 262 212 204 190 192
215 215 211 216 217 214 225 214 222 238 250 237 285 314 262 314 314 255 228 235 226 217 214 208 201 193 183 178 201 198 194 191 189 191 194 215 185 199 287 264 225 194 209 187
229 221 221 223 221 221 220 215 229 230 208 271 291 365 288 305 292 249 220 228 220 213 208 199 195 202 179 182 200 200 195 188 192 179 199 191 230 200 200 268 253 212 198 200
234 228 227 220 217 225 228 229 232 246 247 278 292 279 275 293 252 240 220 215 208 216 200 196 196 205 191 199 200 197 197 188 188 198 196 189 191 210 184 195 227 274 261 194
233 227 232 231 226 222 236 229 246 253 153 269 280 276 271 267 237 220 209 211 200 208 206 203 193 196 206 183 203 195 193 192 183 180 190 192 193 194 205 198 192 208 229 268
232 230 227 241 233 232 240 231 239 252 266 199 273 269 259 227 222 220 214 201 208 201 210 206 190 199 194 183 195 199 193 192 187 190 185 187 188 183 188 201 204 193 191 210
241 238 234 234 238 234 233 228 238 256 263 263 265 246 235 228 215 199 211 205 198 207 207 198 192 197 185 184 181 192 190 190 194 188 187 192 193 184 184 203 193 197 196 187
246 239 232 235 239 241 235 234 245 268 259 270 275 230 225 226 210 206 200 191 209 201 200 209 200 182 195 187 182 186 197 187 190 190 183 184 189 191 193 192 193 192 188 183
259 243 234 232 236 238 241 245 288 266 247 269 253 217 220 220 213 208 199 202 200 196 199 198 188 186 187 192 181 183 184 191 188 184 189 187 184 192 177 192 190 153 199 194
272 270 252 241 236 235 242 276 264 258 256 261 229 214 216 217 206 199 198 199 191 197 188 193 191 187 182 184 190 190 191 188 190 185 184 192 190 192 194 182 177 180 164 185
297 283 272 270 263 258 262 266 261 252 255 251 218 213 209 213 208 208 202 197 192 190 195 193 191 195 181 182 187 173 195 188 194 191 193 192 197 184 183 189 185 186 200 200
304 295 295 269 293 264 262 256 264 247 255 244 236 215 212 210 210 198 205 198 194 181 180 180 193 198 200 190 192 187 186 182 188 189 197 191 190 187 185 193 174 189 190 192
288 292 292 262 291 275 257 263 262 245 250 242 242 212 214 209 208 206 193 199 198 183 180 190 190 193 187 194 185 192 183 179 195 206 196 192 191 186 188 189 180 182 181 185
268 293 292 284 282 282 276 260 261 250 255 239 233 212 211 206 207 211 190 192 196 196 199 180 193 191 192 193 191 194 190 186 186 192 192 190 191 194 195 196 190 187 186 189
282 268 284 287 293 288 287 292 287 269 262 237 234 226 217 211 208 205 203 195 190 185 191 191 181 190 187 184 183 186 185 180 184 186 191 198 198 196 194 194 196 194 194 201
298 275 272 282 279 276 283 282 272 272 230 247 235 224 211 211 208 212 203 202 197 194 189 185 188 183 197 198 196 186 182 181 186 182 182 190 190 191 192 195 199 202 193 201
301 271 274 285 264 272 282 274 282 264 226 252 232 224 210 204 207 205 213 220 225 229 191 208 192 192 194 201 197 196 181 190 187 191 190 190 185 188 198 204 201 193 193 198
289 268 261 293 288 261 266 270 278 271 242 250 234 226 217 209 205 203 201 202 204 207 213 187 182 193 198 209 214 213 205 196 197 198 210 206 201 201 202 195 185 194 206 197
288 271 263 293 291 283 282 280 292 272 241 250 243 229 220 221 220 210 209 209 209 208 209 209 223 209 219 212 181 201 194 228 195 192 208 212 207 201 204 203 203 207 200 199
288 274 274 278 287 279 273 275 293 262 251 225 235 229 222 214 212 215 217 216 218 220 212 212 212 210 211 212 215 211 211 202 223 219 226 200 203 204 207 208 207 206 203 203
289 266 190 273 285 271 261 274 281 281 270 227 240 224 229 219 209 213 212 210 217 216 214 210 211 210 214 216 215 214 208 215 202 175 222 190 197 218 221 218 212 213 213 214
274 271 260 261 276 276 278 284 276 288 254 231 259 232 226 232 218 220 217 214 213 214 203 219 211 221 209 208 213 205 213 221 229 230 229 229 224 230 223 218 218 212 215 219

GFSCGP_2pvu_pres_084.txt.gz
Presure
271 273 267 251 238 233 223 212 205 198 221 201 200 216 67 193 195 199 201 205 223 220 228 216 228 253 270 270 259 383 143 150 223 210 205 215 193 209 202 217 213 268 240 226
255 257 256 234 223 215 220 213 215 198 209 200 215 218 207 206 201 207 201 195 221 214 232 212 234 254 293 302 372 254 239 227 216 206 200 197 206 242 224 240 273 254 231 226
268 262 251 249 214 220 218 219 215 205 215 239 213 215 208 204 205 201 204 210 222 235 220 200 250 285 325 331 344 240 231 220 207 195 205 206 181 238 217 219 254 250 249 232
268 256 248 248 242 233 226 210 217 208 206 220 214 215 205 204 202 208 217 221 208 198 231 241 258 312 246 333 251 228 224 211 204 185 203 183 215 246 216 201 218 243 227 228
260 276 249 241 239 235 230 224 215 219 218 213 217 214 206 209 208 220 226 216 222 228 244 269 316 306 337 257 238 228 211 207 192 193 201 183 205 211 229 207 212 244 221 222
272 258 261 255 235 231 222 231 225 212 213 217 219 216 220 211 209 213 224 224 239 239 262 339 307 208 259 244 226 216 212 197 194 195 186 180 204 210 235 236 202 254 214 215
265 260 254 261 239 242 231 226 229 223 226 218 216 222 230 201 214 217 224 175 248 286 358 303 282 333 253 232 217 206 203 193 192 185 183 205 178 196 181 227 199 269 208 211
273 260 253 257 251 251 243 232 226 226 225 222 218 211 222 224 233 230 180 234 268 347 329 286 311 266 245 224 216 203 198 195 202 193 184 202 167 202 198 218 198 261 215 212
299 271 252 254 251 250 245 240 232 231 232 224 217 223 216 226 230 219 233 263 293 308 271 297 303 247 219 211 214 205 192 201 185 162 189 202 173 195 197 217 214 214 213 215
281 308 261 249 253 251 244 242 242 239 235 228 229 233 235 230 219 211 249 284 297 297 263 322 256 236 224 210 196 205 193 195 187 188 171 174 191 196 190 205 210 212 225 210
305 304 270 259 247 250 251 243 243 230 231 237 225 235 240 228 243 236 253 270 288 258 304 271 237 221 213 213 194 206 192 183 181 197 188 199 192 174 164 190 193 197 212 241
332 288 300 271 260 249 249 250 250 244 231 238 244 239 230 240 238 223 256 158 279 277 257 244 235 221 213 202 204 193 190 191 176 197 196 193 192 189 189 184 189 198 192 214
303 310 275 290 288 252 244 245 248 247 248 247 239 232 249 243 231 236 242 268 189 263 238 232 227 209 211 192 202 194 191 190 187 172 194 190 195 187 186 179 184 183 182 191
278 316 282 283 277 258 247 247 240 240 241 242 242 247 240 252 236 241 243 263 267 238 229 229 218 210 203 198 195 196 191 184 195 191 181 195 185 187 188 183 191 192 183 184
301 286 302 286 276 266 252 249 246 240 239 233 232 237 251 236 234 260 245 259 247 224 222 219 215 210 203 202 191 193 189 192 179 198 188 190 190 173 182 190 189 193 192 185
320 272 307 289 277 267 261 249 246 247 243 235 237 235 235 234 242 265 245 253 237 220 222 215 216 204 201 201 189 200 192 193 188 197 181 181 181 181 179 190 178 190 197 187
329 285 295 283 285 272 265 258 250 248 248 245 242 254 239 222 266 254 246 252 230 218 219 217 214 201 203 199 193 192 188 191 185 189 192 186 187 186 184 188 191 188 188 188
321 313 268 300 279 282 269 266 255 249 242 244 242 232 251 232 243 249 246 238 222 214 212 210 209 202 190 193 183 187 183 182 185 196 192 189 186 183 181 178 173 174 184 175
335 351 286 267 298 287 288 267 259 258 253 241 242 233 228 243 226 242 244 221 215 209 212 206 210 202 199 192 192 184 175 179 183 185 189 184 178 171 160 182 179 180 185 173
319 333 305 287 268 294 289 267 277 269 259 253 245 244 234 250 231 234 242 215 221 202 209 201 202 198 194 199 183 191 183 182 183 187 189 187 189 182 179 203 232 202 201 180
304 315 317 305 296 264 283 289 280 278 272 273 263 245 258 258 228 217 238 225 221 204 200 203 192 194 205 198 202 189 187 189 173 181 180 197 193 186 179 178 177 198 193 193
310 319 308 294 312 305 257 268 293 296 284 278 274 258 255 250 229 225 238 236 216 209 220 215 198 200 217 228 199 197 191 192 190 185 177 176 182 185 182 180 179 193 190 193
311 311 324 307 308 300 296 266 279 291 275 280 271 269 262 244 229 217 220 239 226 211 207 200 199 200 200 199 199 199 195 200 199 190 186 183 178 177 190 183 190 196 194 189
313 308 313 305 293 304 308 264 276 284 279 270 269 279 261 239 235 229 222 224 239 221 212 212 209 201 203 204 206 210 202 199 198 198 202 202 198 189 199 199 200 204 201 198
325 315 317 316 304 302 310 266 282 278 276 262 276 277 258 241 239 231 227 221 223 236 223 213 211 205 209 204 200 196 193 193 201 207 209 203 195 196 194 194 189 192 202 203
365 348 338 328 258 305 297 263 287 284 277 266 273 273 271 241 249 229 226 224 224 224 230 228 223 213 213 215 212 208 211 194 195 194 189 188 190 192 193 194 194 197 204 202

GFSCGP_2pvu_pres_087.txt.gz
Presure
240 247 268 317 309 291 312 271 258 230 229 241 223 223 208 218 203 200 196 205 200 193 197 192 198 208 209 218 224 206 233 274 330 281 260 241 226 218 210 211 217 223 214 213
244 264 322 308 309 298 288 267 271 248 259 251 225 220 201 196 198 204 207 194 207 198 199 194 197 203 224 213 241 227 250 309 265 293 240 173 220 201 206 214 190 229 215 228
283 319 310 293 295 290 278 260 266 261 254 246 236 206 204 206 198 200 198 200 195 83 202 203 197 210 224 229 220 248 263 321 369 253 229 221 212 205 215 194 231 214 263 248
314 309 298 283 284 285 271 248 261 257 247 238 234 216 206 208 199 200 213 194 197 203 208 210 229 220 218 207 236 244 281 343 266 238 229 214 196 210 201 212 201 225 254 220
305 305 289 278 269 274 273 262 255 241 231 223 222 222 212 209 202 204 208 208 199 207 202 212 221 223 229 238 242 266 300 310 232 214 215 201 205 194 214 182 223 216 228 247
313 311 292 273 266 268 264 259 248 252 236 212 221 228 212 217 204 216 204 209 212 208 210 215 218 204 228 246 259 289 340 249 237 224 211 200 202 195 211 183 256 203 219 235
321 323 297 284 265 263 262 256 247 238 239 229 219 213 210 212 212 217 219 214 218 217 213 223 207 228 214 268 309 333 272 197 225 216 200 204 198 202 183 211 205 221 212 234
344 321 319 278 266 263 259 261 258 244 237 220 228 223 214 214 208 212 218 213 223 223 218 222 230 250 291 357 151 143 245 228 213 204 202 190 196 204 180 214 205 260 198 229
331 334 315 293 268 263 256 261 247 250 234 222 220 217 215 223 211 209 217 214 219 220 130 180 221 307 347 305 305 251 238 224 214 197 203 200 193 209 164 177 201 246 203 221
315 321 318 294 300 263 257 251 253 242 239 227 224 218 221 219 226 227 223 222 224 229 131 248 289 343 300 295 267 240 219 212 202 204 185 206 197 189 171 195 201 228 222 214
308 311 325 315 309 269 256 251 250 248 243 232 227 229 220 228 235 225 223 222 224 246 246 270 308 279 265 297 251 236 223 212 185 204 193 198 198 168 210 182 205 220 213 246
292 299 307 331 291 289 263 255 254 251 245 241 232 230 229 228 236 231 229 221 238 224 255 290 303 242 309 255 238 223 196 206 182 200 200 195 184 189 180 181 198 195 196 220
293 281 294 320 310 278 280 255 246 255 247 241 242 235 236 239 232 238 244 236 233 259 269 280 280 307 267 249 233 224 205 201 197 192 200 194 182 195 187 190 182 188 178 198
352 329 277 302 308 271 281 256 251 243 251 244 240 237 237 240 240 229 244 247 249 249 275 271 265 279 249 238 206 215 211 201 201 188 193 189 177 200 193 185 188 173 182 192
346 376 279 284 309 275 288 261 252 246 247 247 250 244 241 244 251 249 254 239 245 239 270 261 277 251 242 232 215 206 203 189 199 190 193 194 201 178 198 186 189 186 188 182
339 362 299 273 306 293 279 289 263 251 246 248 249 247 252 249 240 250 238 233 247 263 261 257 247 239 233 219 211 207 202 185 194 186 193 192 190 187 183 190 193 183 181 186
324 326 325 269 269 309 278 281 279 262 247 239 241 244 242 237 233 238 247 233 237 249 255 246 232 236 229 213 211 204 202 186 200 185 196 185 185 189 195 181 189 190 188 184
324 323 308 328 273 302 278 265 278 270 254 246 239 239 236 234 230 232 236 235 259 248 248 238 226 229 223 209 213 202 203 198 193 189 196 187 191 180 186 180 180 182 180 182
304 314 319 331 281 275 293 265 271 265 254 244 241 242 241 235 239 238 220 268 248 238 243 234 223 222 220 212 206 203 200 189 198 185 195 186 192 186 186 192 190 189 191 184
300 310 320 305 298 267 292 277 265 266 257 251 247 247 250 248 247 260 223 256 239 245 243 236 221 214 215 210 204 198 213 188 194 187 189 189 187 185 184 184 189 190 190 189
298 302 313 318 313 272 292 293 273 264 255 253 246 254 255 244 234 240 244 245 233 240 234 245 215 211 216 190 211 181 185 201 192 194 187 185 176 182 183 187 188 186 172 181
297 300 307 320 322 283 268 272 282 269 258 256 252 242 237 241 252 230 228 236 229 235 225 233 213 210 205 210 208 200 195 196 195 181 185 206 194 184 184 186 187 173 191 197
297 298 301 297 320 309 282 263 274 283 271 258 256 252 244 232 246 221 223 234 239 231 224 232 206 209 205 203 203 210 207 194 180 190 182 183 189 192 189 182 181 182 199 174
302 299 298 300 293 309 293 307 259 258 291 279 270 262 257 249 246 228 229 225 232 227 223 226 211 208 207 208 212 202 194 200 219 182 181 187 201 181 183 183 197 198 183 190
300 307 306 304 303 302 314 305 307 261 273 293 284 277 275 268 251 236 234 230 231 235 228 217 224 209 206 196 208 207 218 206 213 226 192 195 194 193 192 192 192 191 192 185
313 316 316 316 306 312 312 312 299 305 266 269 292 293 276 276 284 256 258 235 221 229 232 227 214 225 208 207 225 197 202 196 202 224 227 220 208 202 202 200 197 195 194 193